Home > Weather > Ushuaia > Past weeks

Flag for Argentina Past Weather in Ushuaia, Tierra del Fuego, Argentina — Yesterday and Last 2 Weeks

Now
43 °F

Passing clouds.


Feels Like: 39 °F
Forecast: 45 / 52 °F
Wind: 6 mph from Northeast

Location: Ushuaia Aerodrome

Current Time: Jun 25, 2016 at 10:12:45 PM

Latest Report: Jun 25, 2016 at 9:00 PM


Visibility: N/A

Pressure: 29.62 "Hg

Humidity: 93%

Dew Point: 41 °F

Location of UshuaiaLocation

Past Weather in Ushuaia — Graph

°F

Ushuaia Temperature Yesterday

Maximum temperature yesterday: 50 °F (at 10:00 PM)
Minimum temperature yesterday: 36 °F (at 6:00 AM)
Average temperature yesterday: 42 °F

High & Low Weather Summary for the Past Weeks

 TemperatureHumidityPressure
High52 °F (Jun 15, 10:00 AM)93% (Jun 12, 12:00 PM)30.07 "Hg (Jun 12, 12:00 PM)
Low36 °F (Jun 22, 10:00 AM)40% (Jun 19, 7:00 PM)29.06 "Hg (Jun 12, 10:00 PM)
Average44 °F70%29.67 "Hg
* Reported Jun 10 10:00 PM — Jun 25 9:00 PM, Ushuaia, Weather by CustomWeather, © 2016

Note: Actual official high and low records may vary slightly from our data, if they occured in-between our weather recording intervals... More about our weather records

Advertising

Ushuaia Weather History for the Previous 24 Hours

Scroll right to see more
 ConditionsComfort  
Time TempWeatherWind HumidityBarometerVisibility
9:00 PM
Sat, Jun 25
43 °FPassing clouds.6 mph93%29.62 "HgN/A
8:00 PM43 °FPassing clouds.5 mph93%29.65 "HgN/A
7:00 PM45 °FPassing clouds.6 mph87%29.65 "HgN/A
6:00 PM46 °FPassing clouds.7 mph76%29.65 "HgN/A
5:00 PM48 °FPartly cloudy.3 mph76%29.65 "HgN/A
4:00 PM48 °FPartly sunny.3 mph76%29.62 "HgN/A
3:00 PM50 °FBroken clouds.No wind71%29.59 "HgN/A
2:00 PM50 °FBroken clouds.3 mph71%29.62 "HgN/A
1:00 PM50 °FBroken clouds.No wind71%29.59 "HgN/A
12:00 PM50 °FScattered clouds.No wind71%29.62 "HgN/A
11:00 AM50 °FScattered clouds.No wind71%29.59 "HgN/A
10:00 AM48 °FScattered clouds.6 mph76%29.59 "HgN/A
9:00 AM48 °FScattered clouds.10 mph71%29.56 "HgN/A
8:00 AM50 °FPassing clouds.13 mph58%29.56 "HgN/A
7:00 AM50 °FPartly cloudy.8 mph54%29.56 "HgN/A
6:00 AM48 °FPassing clouds.7 mph66%29.56 "HgN/A
5:00 AM48 °FPassing clouds.18 mph66%29.53 "HgN/A
4:00 AM48 °FPartly cloudy.14 mph62%29.53 "HgN/A
3:00 AM48 °FPartly cloudy.17 mph66%29.53 "HgN/A
2:00 AM50 °FPartly cloudy.21 mph62%29.53 "HgN/A
1:00 AM50 °FPartly cloudy.24 mph62%29.50 "HgN/A
12:00 AM50 °FPassing clouds.17 mph50%29.53 "HgN/A
11:00 PM
Fri, Jun 24
50 °FPassing clouds.17 mph50%29.53 "HgN/A
10:00 PM50 °FPassing clouds.17 mph50%29.53 "HgN/A
Weather by CustomWeather, © 2016

See weather overviewHow to use our weather pages